This demonstration page uses our WeatherBlox Daily Observations layout. Learn more.

Left ArrowRight Arrow

39.51506, -84.39828

Hourly Observations for June 22, 2017

Temp ( °F °C ) Dew Point ( °F °C ) Humidity (%) Winds ( mph kmh ) Pressure ( in mb ) Visibility ( mi km ) Precip ( " mm )
12:15 am 00:15 Partly Cloudy 74 23.6 67 19.6 78 78 N N/A 29.97 1015 10 16 N/A
12:35 am 00:35 Mostly Cloudy 74 23.6 66 19.1 76 76 SW 3 6 29.97 1015 10 16 N/A
12:55 am 00:55 Cloudy 74 23.6 68 19.8 79 79 WSW 3 6 29.97 1015 10 16 N/A
1:15 am 01:15 Cloudy 74 23.6 67 19.7 79 79 N N/A 29.97 1015 10 16 N/A
1:35 am 01:35 Mostly Cloudy 74 23.6 67 19.5 78 78 SW 3 6 29.97 1015 10 16 N/A
1:55 am 01:55 Partly Cloudy 74 23.6 67 19.6 78 78 SSW 3 6 29.97 1015 10 16 N/A
2:15 am 02:15 Cloudy 74 23.6 67 19.7 79 79 N N/A 29.97 1015 10 16 N/A
2:35 am 02:35 Cloudy 74 23.6 68 20 80 80 WSW 5 7 29.97 1015 10 16 N/A
2:55 am 02:55 Cloudy 74 23.6 67 19.6 78 78 SSW 6 9 29.97 1015 10 16 N/A
3:15 am 03:15 Cloudy 74 23.6 67 19.5 78 78 SW 5 7 29.97 1015 10 16 N/A
3:35 am 03:35 Cloudy 74 23.6 67 19.5 78 78 SW 6 9 29.97 1015 10 16 N/A
3:55 am 03:55 Cloudy 74 23.6 67 19.6 78 78 SW 5 7 29.97 1015 10 16 N/A
4:15 am 04:15 Partly Cloudy 74 23.6 67 19.6 78 78 SW 3 6 29.97 1015 10 16 N/A
4:35 am 04:35 Clear 74 23.6 67 19.5 78 78 SSW 6 9 29.97 1015 10 16 N/A
4:55 am 04:55 Mostly Cloudy 74 23.6 67 19.5 78 78 SSW 3 6 29.97 1015 10 16 N/A
5:15 am 05:15 Cloudy 74 23.6 67 19.6 78 78 SSW 5 7 29.97 1015 10 16 N/A
5:35 am 05:35 Partly Cloudy 74 23.6 67 19.7 79 79 SSW 5 7 29.97 1015 10 16 N/A
5:55 am 05:55 Clear 74 23.6 68 20 80 80 SSW 6 9 29.97 1015 10 16 N/A
6:15 am 06:15 Sunny 74 23.6 67 19.7 79 79 SSW 6 9 29.97 1015 10 16 N/A
6:35 am 06:35 Sunny 74 23.6 68 20 80 80 SSW 3 6 29.97 1015 10 16 N/A
6:55 am 06:55 Sunny 74 23.6 67 19.7 79 79 SW 5 7 30.00 1016 10 16 N/A
7:15 am 07:15 Sunny 74 23.6 67 19.6 78 78 SW 6 9 29.97 1015 10 16 N/A
7:35 am 07:35 Sunny 74 23.6 67 19.4 77 77 SSW 7 11 29.97 1015 10 16 N/A
7:55 am 07:55 Sunny 74 23.6 66 18.9 75 75 SW 6 9 29.97 1015 10 16 N/A
8:15 am 08:15 Sunny 77 25.1 68 19.8 73 73 SSW 8 13 29.97 1015 10 16 N/A
8:35 am 08:35 Sunny 77 25.1 67 19.3 70 70 SSW 8 13 29.97 1015 10 16 N/A
8:55 am 08:55 Sunny 77 25.1 67 19.5 71 71 SSW 10 17 30.00 1016 10 16 N/A
9:15 am 09:15 Sunny 77 25.2 66 19 69 69 SSW 12 19 30.00 1016 10 16 N/A
9:35 am 09:35 Sunny 80 26.5 68 20 68 68 SW 12 19 30.00 1016 10 16 N/A
9:55 am 09:55 Sunny 80 26.5 67 19.7 66 66 SW 12 19 30.00 1016 10 16 N/A
10:15 am 10:15 Sunny 80 26.5 67 19.5 65 65 SW 9 15 30.00 1016 10 16 N/A
10:35 am 10:35 Sunny 81 27.2 67 19.4 62 62 SSW 12 19 30.00 1016 10 16 N/A
10:55 am 10:55 Sunny 81 27.2 67 19.2 62 62 SSW 15 24 30.00 1016 10 16 N/A
11:15 am 11:15 Sunny 82 27.7 67 19.7 62 62 SW 10 17 30.00 1016 10 16 N/A
11:35 am 11:35 Sunny 82 27.9 67 19.7 61 61 SW 15 24 30.00 1016 10 16 N/A
11:55 am 11:55 Sunny 82 28 68 19.9 61 61 SW 10 17 30.00 1016 10 16 N/A
12:15 pm 12:15 Partly Cloudy 83 28.1 67 19.2 58 58 S 12 19 29.94 1014 10 16 N/A
12:35 pm 12:35 Partly Cloudy 83 28.1 66 18.8 57 57 SSW 13 20 29.94 1014 10 16 N/A
12:55 pm 12:55 Sunny 83 28.1 66 18.9 57 57 SW 14 22 29.94 1014 10 16 N/A
1:15 pm 13:15 Partly Cloudy 86 29.9 68 19.8 55 55 S 17 28 29.94 1014 10 16 N/A
1:35 pm 13:35 Mostly Cloudy 84 28.8 65 18.1 52 52 SSW 16 26 29.94 1014 10 16 N/A
1:55 pm 13:55 Mostly Cloudy 84 28.9 65 18.2 52 52 S 16 26 29.94 1014 10 16 N/A
2:15 pm 14:15 Mostly Cloudy 82 28 67 19.2 59 59 SSW 10 17 29.94 1014 10 16 N/A
2:35 pm 14:35 Mostly Cloudy 83 28.6 66 18.9 56 56 SSW 12 19 29.91 1013 10 16 N/A
2:55 pm 14:55 Mostly Cloudy 84 29 66 18.8 54 54 SW 14 22 29.91 1013 10 16 N/A
3:15 pm 15:15 Mostly Cloudy 84 29 65 18.6 53 53 SSW 14 22 29.91 1013 10 16 N/A
3:35 pm 15:35 Partly Cloudy 82 28 67 19.2 59 59 S 16 26 29.91 1013 10 16 N/A
3:55 pm 15:55 Mostly Cloudy 83 28.2 65 18.1 54 54 S 14 22 29.91 1013 10 16 N/A
4:15 pm 16:15 Cloudy 83 28.3 64 17.8 53 53 SSW 13 20 29.88 1012 10 16 N/A
4:35 pm 16:35 Cloudy 83 28.6 64 17.5 51 51 S 15 24 29.88 1012 10 16 N/A
4:55 pm 16:55 Mostly Cloudy 82 28 63 17.3 52 52 S 17 28 29.88 1012 10 16 N/A
5:15 pm 17:15 Mostly Cloudy 83 28.1 63 17.4 52 52 S 16 26 29.88 1012 10 16 N/A
5:35 pm 17:35 Mostly Cloudy 82 28 64 17.9 54 54 SSW 13 20 29.88 1012 10 16 N/A
5:55 pm 17:55 Mostly Cloudy 81 27.4 63 17.2 54 54 SSW 20 31 29.88 1012 10 16 N/A
6:15 pm 18:15 Cloudy 81 27.2 63 17.3 55 55 S 13 20 29.91 1013 10 16 N/A
6:35 pm 18:35 Cloudy 80 26.5 63 17.3 57 57 S 14 22 29.91 1013 10 16 N/A
6:55 pm 18:55 Cloudy 80 26.5 64 17.7 59 59 SSW 12 19 29.91 1013 10 16 N/A
7:15 pm 19:15 Cloudy 80 26.4 66 18.8 63 63 S 12 19 29.88 1012 10 16 N/A
7:35 pm 19:35 Cloudy with Drizzle 77 25.1 66 18.7 68 68 SSW 14 22 29.88 1012 10 16 N/A
7:55 pm 19:55 Cloudy 75 23.7 66 19.1 76 76 SSW 8 13 29.88 1012 10 16 N/A
8:15 pm 20:15 Cloudy with Light Rain 76 24.7 67 19.6 73 73 S 9 15 29.88 1012 10 16 N/A
8:35 pm 20:35 Cloudy with Rain 74 23.6 67 19.2 76 76 S 10 17 29.88 1012 10 16 N/A
8:55 pm 20:55 Cloudy with Light Rain 74 23.6 67 19.6 78 78 S 7 11 29.88 1012 10 16 N/A
9:15 pm 21:15 Cloudy with Light Rain 74 23.6 68 19.8 79 79 SW 5 7 29.88 1012 10 16 N/A
9:35 pm 21:35 Cloudy with Rain 74 23.6 68 20 80 80 SSE 3 6 29.88 1012 10 16 N/A
9:55 pm 21:55 Cloudy with Light Rain 74 23.6 69 20.3 82 82 N N/A 29.88 1012 10 16 N/A
10:15 pm 22:15 Cloudy with Rain 74 23.6 68 20.1 81 81 S 10 17 29.88 1012 10 16 N/A
10:35 pm 22:35 Cloudy 74 23.6 68 20 80 80 S 9 15 29.88 1012 10 16 N/A
10:55 pm 22:55 Cloudy 74 23.6 68 20.1 81 81 S 6 9 29.88 1012 10 16 N/A
11:15 pm 23:15 Cloudy 74 23.6 68 20.2 81 81 S 8 13 29.88 1012 10 16 N/A
11:35 pm 23:35 Cloudy 74 23.6 68 20.2 81 81 S 12 19 29.88 1012 10 16 N/A
11:55 pm 23:55 Cloudy 74 23.6 68 20.2 81 81 S 8 13 29.85 1011 10 16 N/A

Powered by AerisWeather